Showing default

BSAT-3A, 32019

Orbit data source: Space-Track

BSAT-3A, 32019 is a payload satellite owned by BSAT (JP) in GEO that was launched on Tue, 14 Aug 2007 UTC via an ARIANE 5ECA launch vehicle from the French Guiana (FRGUI). Payload-class satellites include a variety of spacecraft equipped with specific instruments for various scientific and technological missions. These include communications satellites like Starlink; space stations such as the ISS; scientific satellites like the Hubble; Earth observation satellites from companies like Planet Labs, Umbra, and HawkEye 360; GPS; miniature CubeSats for education and research; and military/defense satellites.

Not visible in the next 10 days
Identifier
32019, 2007-036B
Orbit
GEO
Country
Flag of JPJP / JPN
Related business
Manufacturer
LMCSS
Mission
Non-operational Commercial Communications
Bus & Motor
A2100A, LEROS?
Mass
1,967 kg wet, 930 kg dry
Launch date (UTC)
2007-08-14 (18 years ago)
Launch vehicle
ARIANE 5ECA
Launch site
French Guiana (FRGUI)
Object type
Payload
Rocket body
Debris
Shape & HBR
Box + 2 Pan, 7.3 m
Radar Cross Section
15.563 m², Large (>1 m²)

Expand to show TLE details & history
Last TLE update: 16 hours ago

TLE from 16 hours ago
0 BSAT-3A
1 32019U 07036B   25296.50741919 -.00000166  00000-0  00000+0 0  9994
2 32019   1.0377  94.3943 0005826 109.5665 123.2513  0.99140649 48124
Epoch: 2025-10-23T12:10Z
TLE epoch observation values (Epoch: 2025-10-23T12:10:41.018Z)
Latitude
-0.803°
Longitude
112.39259°
Altitude
36,119.908 km
Speed
3.062 km/s
True Right ascension
21h 48m 55s
True Declination
0° 48' 08"
Sunlit
Object was in daylight at epoch
Visualization orbit readout
Latitude
Unknown
Longitude
Unknown
Altitude
Unknown
Speed
Unknown
Apparent Right ascension
Unknown
Apparent Declination
Unknown
Sunlit
N/A
Visualization observer readout
Local Sidereal Time
22:58:25
Azimuth
Unknown
Elevation
Unknown
Doppler factor
Unknown
Orbital elements
Apogee altitude
36,132.519 km
Perigee altitude
36,083.014 km
Semi-major axis
42,485.904 km
Eccentricity
0.00058
Inclination
1.0377°
RAAN
94.3943°
Arg. of periapsis
109.5665°
True anomaly
123.30711°
Mean anomaly
123.2513°
Eccentric anomaly
123.27921°
Mean motion
0.24784 °/min
Orbital period
1,452.54 mins
BSTAR
0
Loading maneuver chart data...
Computing Atmospheric mass density...
Loading historical data...
Loading historical data...
Loading historical data...
Loading historical data...
Loading historical data...
Loading historical data...
Loading historical data...
Other satellites on launch #36 in the year 2007 (2007-08-14 UTC)

Documentation

Showing up to 5 results
|